Weather History for KOZW - May, 2013

Change the Weather History Date:

Saturday, May 25, 2013

  Actual Average Record
Temperature  
Mean Temperature 50 °F -  
Max Temperature 62 °F 67 °F 82 °F (2012)
Min Temperature 37 °F 47 °F 37 °F (2002)
Degree Days  
Heating Degree Days 16    
Moisture  
Dew Point 36 °F    
Average Humidity 64    
Maximum Humidity 98    
Minimum Humidity 36    
Precipitation  
Precipitation 0.00 in - - ()
Sea Level Pressure  
Sea Level Pressure 30.34 in    
Wind  
Wind Speed 2 mph (ENE)    
Max Wind Speed 8 mph    
Max Gust Speed -    
Visibility 10 miles    
Events      
Averages and records for this station are not official NWS values.
T = Trace of Precipitation, MM = Missing Value Source: NWS Daily Summary

Daily Weather History Graph

Daily Weather History Graph

Search for Another Location

Airport or City:

Trip Planner

Search our weather history database for the weather conditions in past years. The results will help you decide how hot, cold, wet, or windy it might be!

Date:

Astronomy

May. 25, 2013 Rise Set
Actual Time 6:04 AM EDT 9:01 PM EDT
Civil Twilight 5:31 AM EDT 9:35 PM EDT
Nautical Twilight 4:48 AM EDT 10:17 PM EDT
Astronomical Twilight 3:59 AM EDT 11:07 PM EDT
Moon 9:48 PM EDT (5/25) 6:31 AM EDT (5/25)
Length of Visible Light 16h 03m
Length of Day
14h 56m
Full, 100% of the Moon is Illuminated
May 25
Full
May 31
Last Quarter
Jun 8
New
Jun 16
First Quarter
Jun 23
Full

Hourly Weather History & Observations

Time (EDT) Temp. Windchill Dew Point Humidity Pressure Visibility Wind Dir Wind Speed Gust Speed Precip Events Conditions
12:15 AM 41.9 °F - 39.4 °F 91% 30.33 in 10.0 mi Calm Calm - N/A   Clear
12:35 AM 43.2 °F - 40.8 °F 91% 30.33 in 10.0 mi Calm Calm - N/A   Clear
12:55 AM 41.9 °F - 39.4 °F 91% 30.34 in 10.0 mi Calm Calm - N/A   Clear
1:15 AM 41.0 °F - 39.2 °F 93% 30.34 in 10.0 mi Calm Calm - N/A   Clear
1:35 AM 39.7 °F - 38.5 °F 95% 30.33 in 10.0 mi Calm Calm - N/A   Clear
1:55 AM 39.6 °F 37.4 °F 38.8 °F 97% 30.35 in 10.0 mi NE 3.5 mph - N/A   Clear
2:15 AM 39.7 °F - 39.2 °F 98% 30.35 in 10.0 mi Calm Calm - N/A   Clear
2:34 AM 39.2 °F 37.0 °F 38.5 °F 97% 30.35 in 10.0 mi ESE 3.5 mph - N/A   Clear
2:55 AM 39.2 °F 37.0 °F 38.5 °F 97% 30.35 in 10.0 mi East 3.5 mph - N/A   Clear
3:15 AM 37.6 °F 32.3 °F 36.9 °F 97% 30.34 in 10.0 mi ESE 6.9 mph - N/A   Clear
3:35 AM 39.0 °F 34.8 °F 38.3 °F 97% 30.34 in 10.0 mi SE 5.8 mph - N/A   Clear
3:55 AM 38.1 °F - 37.6 °F 98% 30.34 in 10.0 mi Calm Calm - N/A   Clear
4:15 AM 38.3 °F 35.9 °F 37.4 °F 97% 30.34 in 10.0 mi SE 3.5 mph - N/A   Clear
4:35 AM 37.6 °F - 37.0 °F 98% 30.33 in 10.0 mi Calm Calm - N/A   Clear
4:55 AM 37.4 °F 34.9 °F 36.7 °F 97% 30.33 in 10.0 mi SE 3.5 mph - N/A   Clear
5:15 AM 37.6 °F 35.1 °F 37.0 °F 98% 30.33 in 10.0 mi ESE 3.5 mph - N/A   Clear
5:35 AM 38.3 °F - 37.4 °F 97% 30.33 in 10.0 mi Calm Calm - N/A   Clear
5:55 AM 37.6 °F - 36.9 °F 97% 30.33 in 10.0 mi Calm Calm - N/A   Clear
6:15 AM 37.0 °F - 36.1 °F 97% 30.34 in 10.0 mi Calm Calm - N/A   Clear
6:35 AM 37.4 °F - 36.5 °F 97% 30.34 in 10.0 mi Calm Calm - N/A   Clear
6:55 AM 38.3 °F - 37.4 °F 97% 30.35 in 10.0 mi Calm Calm - N/A   Clear
7:15 AM 39.7 °F - 38.7 °F 96% 30.35 in 10.0 mi Calm Calm - N/A   Clear
7:35 AM 41.5 °F - 40.1 °F 95% 30.36 in 10.0 mi Calm Calm - N/A   Clear
7:55 AM 42.8 °F - 40.5 °F 91% 30.37 in 10.0 mi Calm Calm - N/A   Clear
8:15 AM 44.2 °F - 40.5 °F 87% 30.38 in 10.0 mi Calm Calm - N/A   Clear
8:35 AM 45.9 °F - 39.7 °F 79% 30.39 in 10.0 mi Calm Calm - N/A   Clear
8:54 AM 47.5 °F - 38.1 °F 70% 30.39 in 10.0 mi Calm Calm - N/A   Clear
9:15 AM 50.2 °F - 39.0 °F 66% 30.40 in 10.0 mi Calm Calm - N/A   Clear
9:35 AM 51.6 °F - 34.2 °F 51% 30.40 in 10.0 mi SE 4.6 mph - N/A   Clear
9:54 AM 52.5 °F - 32.7 °F 47% 30.40 in 10.0 mi SSE 3.5 mph - N/A   Clear
10:15 AM 53.4 °F - 33.4 °F 47% 30.40 in 10.0 mi East 4.6 mph - N/A   Clear
10:35 AM 54.0 °F - 33.4 °F 46% 30.39 in 10.0 mi ENE 6.9 mph - N/A   Clear
10:54 AM 54.9 °F - 33.6 °F 45% 30.38 in 10.0 mi Calm Calm - N/A   Clear
11:15 AM 56.5 °F - 35.4 °F 45% 30.38 in 10.0 mi NE 4.6 mph - N/A   Clear
11:35 AM 56.3 °F - 34.3 °F 44% 30.38 in 10.0 mi Calm Calm - N/A   Clear
11:55 AM 57.4 °F - 35.4 °F 44% 30.38 in 10.0 mi East 4.6 mph - N/A   Clear
12:15 PM 57.4 °F - 34.3 °F 42% 30.38 in 10.0 mi Calm Calm - N/A   Clear
12:35 PM 56.8 °F - 33.8 °F 42% 30.38 in 10.0 mi Calm Calm - N/A   Clear
12:55 PM 58.5 °F - 33.3 °F 39% 30.37 in 10.0 mi NNW 6.9 mph - N/A   Clear
1:15 PM 59.9 °F - 34.0 °F 38% 30.37 in 10.0 mi NNE 3.5 mph - N/A   Clear
1:34 PM 59.5 °F - 36.0 °F 41% 30.36 in 10.0 mi Calm Calm - N/A   Scattered Clouds
1:55 PM 59.9 °F - 35.6 °F 40% 30.36 in 10.0 mi NNE 6.9 mph - N/A   Scattered Clouds
2:15 PM 61.0 °F - 35.6 °F 39% 30.36 in 10.0 mi Calm Calm - N/A   Clear
2:34 PM 62.1 °F - 36.1 °F 38% 30.35 in 10.0 mi NNW 3.5 mph - N/A   Clear
2:55 PM 61.5 °F - 35.6 °F 38% 30.35 in 10.0 mi Calm Calm - N/A   Clear
3:15 PM 61.7 °F - 36.0 °F 38% 30.34 in 10.0 mi ENE 6.9 mph - N/A   Clear
3:35 PM 61.3 °F - 34.2 °F 36% 30.33 in 10.0 mi NNE 4.6 mph - N/A   Clear
3:55 PM 61.5 °F - 35.4 °F 38% 30.33 in 10.0 mi NW 4.6 mph - N/A   Clear
4:14 PM 61.2 °F - 36.0 °F 39% 30.33 in 10.0 mi ENE 3.5 mph - N/A   Clear
4:35 PM 61.2 °F - 36.3 °F 40% 30.33 in 10.0 mi North 3.5 mph - N/A   Clear
4:55 PM 61.3 °F - 36.5 °F 40% 30.32 in 10.0 mi NNE 5.8 mph - N/A   Clear
5:15 PM 61.7 °F - 37.8 °F 41% 30.31 in 10.0 mi ENE 5.8 mph - N/A   Clear
5:35 PM 61.9 °F - 37.9 °F 41% 30.30 in 10.0 mi ENE 5.8 mph - N/A   Clear
5:55 PM 62.2 °F - 37.6 °F 40% 30.30 in 10.0 mi North 6.9 mph - N/A   Clear
6:15 PM 60.6 °F - 36.5 °F 41% 30.30 in 10.0 mi North 5.8 mph - N/A   Clear
6:35 PM 61.0 °F - 35.8 °F 39% 30.30 in 10.0 mi NNE 8.1 mph - N/A   Clear
6:55 PM 60.8 °F - 34.7 °F 38% 30.30 in 10.0 mi NNE 5.8 mph - N/A   Clear
7:15 PM 59.9 °F - 34.3 °F 38% 30.30 in 10.0 mi NE 8.1 mph - N/A   Clear
7:34 PM 59.0 °F - 31.8 °F 36% 30.31 in 10.0 mi NE 4.6 mph - N/A   Clear
7:55 PM 58.3 °F - 31.8 °F 37% 30.31 in 10.0 mi Calm Calm - N/A   Clear
8:15 PM 57.4 °F - 31.3 °F 37% 30.30 in 10.0 mi Calm Calm - N/A   Clear
8:34 PM 56.7 °F - 31.3 °F 38% 30.29 in 10.0 mi Calm Calm - N/A   Clear
8:55 PM 56.1 °F - 34.5 °F 44% 30.29 in 10.0 mi Calm Calm - N/A   Clear
9:15 PM 53.8 °F - 34.9 °F 49% 30.29 in 10.0 mi Calm Calm - N/A   Clear
9:34 PM 52.3 °F - 35.4 °F 53% 30.29 in 10.0 mi Calm Calm - N/A   Clear
9:55 PM 49.6 °F - 36.9 °F 61% 30.30 in 10.0 mi Calm Calm - N/A   Clear
10:15 PM 48.9 °F - 37.0 °F 64% 30.30 in 10.0 mi Calm Calm - N/A   Clear
10:34 PM 50.0 °F - 37.2 °F 62% 30.31 in 10.0 mi Calm Calm - N/A   Clear
10:55 PM 47.3 °F - 38.3 °F 71% 30.31 in 10.0 mi Calm Calm - N/A   Clear
11:15 PM 44.4 °F - 36.9 °F 75% 30.32 in 10.0 mi Calm Calm - N/A   Clear
11:35 PM 44.2 °F 42.7 °F 38.8 °F 81% 30.32 in 10.0 mi NE 3.5 mph - N/A   Clear
11:55 PM 46.0 °F 43.1 °F 38.7 °F 75% 30.32 in 10.0 mi NE 5.8 mph - N/A   Clear